Regional Weather Roundup
Issued by NWS

Home | Current Version | Previous Version | Graphics & Text | Print | Product List | Glossary On
Versions: 1 2 3 4 5 6 7 8 9 10 11 12 13 14 15 16 17 18 19 20 21 22 23 24 25 26 27 28 29 30 31 32 33 34 35 36 37 38 39 40 41 42 43 44 45 46 47 48 49 50
000
ASUS45 KABQ 181610
RWRNM
NEW MEXICO REGIONAL WEATHER ROUNDUP
NATIONAL WEATHER SERVICE ALBUQUERQUE NM
900 AM MST THU JAN 18 2018

NOTE: "FAIR" MEANS FEW OR NO CLOUDS BELOW 12,000 FEET AGL WITH NO
       SIGNIFICANT WEATHER OR OBSTRUCTIONS TO VISION.

      THIS PRODUCT IS RELEASED AS TWO VERSIONS.  ONE VERSION NEAR
      THE TOP OF THE HOUR CONTAINING PRELIMINARY DATA FROM ALBUQUERQUE
      AND OTHER STATIONS.  A FINAL VERSION WITH ADDITIONAL DATA IS
      ISSUED ABOUT 10 MINUTES AFTER THE HOUR.

NMZ501-503-504-510>518-181700-
NORTHWEST PLATEAU/NORTHCENTRAL MOUNTAINS

CITY           SKY/WX    TMP DP  RH WIND       PRES   REMARKS
FARMINGTON     FAIR      21  14  74 E7        30.34R WCI  12
LOS ALAMOS     FAIR      30  12  46 N6        30.29R WCI  24
SANTA FE       FAIR      27   7  42 N20       30.27S WCI  13
TAOS           FAIR      20   4  50 N7        30.34R WCI  11
ANGEL FIRE     FAIR      12   2  62 CALM      30.30S

$$
NMZ402-403-502-505>509-181700-
WESTCENTRAL MOUNTAINS/SOUTHWEST MOUNTAINS

CITY           SKY/WX    TMP DP  RH WIND       PRES   REMARKS
GALLUP         FAIR      25  15  66 E5        30.33S WCI  19
GRANTS         FAIR      20  10  66 NW6       30.36R WCI  12
SILVER CITY    FAIR      36  17  46 CALM      30.31R

$$
NMZ407-409-411-412-181700-
SOUTHERN DESERTS

CITY           SKY/WX    TMP DP  RH WIND       PRES   REMARKS
DEMING         FAIR      31  13  47 W5        30.32R WCI  26
LAS CRUCES     FAIR      35  13  40 W3        30.32R
HOLLOMAN AFB   FAIR      25   7  46 E7        30.32F WCI  18
ALAMOGORDO     FAIR      25   9  50 SE5       30.31S WCI  19
T OR C         FAIR      34  13  41 CALM      30.30R

$$
NMZ519>523-181700-
CENTRAL VALLEYS/CENTRAL HIGHLANDS

CITY           SKY/WX    TMP DP  RH WIND       PRES   REMARKS
ALBUQUERQUE    FAIR      25  13  60 NW5       30.32R WCI  19
MORIARTY ARPT  FAIR      30  13  49 NE6       30.28S WCI  24
CLINES CORNERS FAIR      33  10  38 NW10      30.25R WCI  25
BELEN          FAIR      29  14  54 CALM      30.33R
SOCORRO        FAIR      27  12  53 NW13      30.32R WCI  16

$$
NMZ524>526-539-540-181700-
SOUTHCENTRAL MOUNTAINS

CITY           SKY/WX    TMP DP  RH WIND       PRES   REMARKS
RUIDOSO        NOT AVBL

$$
NMZ527>531-181700-
NORTHEAST HIGHLANDS/NORTHEAST PLAINS

CITY           SKY/WX    TMP DP  RH WIND       PRES   REMARKS
LAS VEGAS      FAIR      32   7  35 NE5       30.20S WCI  27
RATON          FAIR      26   6  42 NE6       30.19S WCI  19
CLAYTON        FAIR      47  -2  13 W8        30.16R

$$
NMZ532>537-181700-
EASTCENTRAL PLAINS

CITY           SKY/WX    TMP DP  RH WIND       PRES   REMARKS
TUCUMCARI      FAIR      32  11  41 W8        30.19F WCI  25
CANNON AFB     FAIR      27   2  34 SW12      30.25S WCI  16
CLOVIS AIRPORT FAIR      28   5  37 W15       30.25S WCI  16

$$
NMZ028-029-538-181700-
SOUTHEAST PLAINS

CITY           SKY/WX    TMP DP  RH WIND       PRES   REMARKS
ROSWELL        FAIR      24   3  40 CALM      30.29R
ARTESIA        FAIR      25   0  33 S6        30.32S WCI  18
CARLSBAD       FAIR      26   6  42 NE3       30.33S
HOBBS          SUNNY     28   1  31 S6        30.32S WCI  22


$$




USA.gov is the U.S. government's official web portal to all federal, state and local government web resources and services.